This is the latest recevied weather packets stored in our database for station/object AD7ZD. If no packets are shown the sender has not sent any weather packets the latest 1 day(s).
| Time | Temp. | Humidity | Pressure | Rain* | Wind** | Luminosity | Snow |
|---|---|---|---|---|---|---|---|
| 1778031714 | 18.33° C | 42% | 1009.7 hPa | 0 mm | 2.68 m/s, 158° | 116 W/m² | - |
| 1778031412 | 18.33° C | 42% | 1010.1 hPa | 0 mm | 4.47 m/s, 146° | 133 W/m² | - |
| 1778031109 | 18.89° C | 42% | 1010 hPa | 0 mm | 3.13 m/s, 136° | 149 W/m² | - |
| 1778030805 | 18.89° C | 41% | 1009.7 hPa | 0 mm | 1.79 m/s, 194° | 158 W/m² | - |
| 1778030502 | 18.89° C | 43% | 1009.8 hPa | 0 mm | 1.34 m/s, 173° | 171 W/m² | - |
| 1778030199 | 18.33° C | 41% | 1009.8 hPa | 0 mm | 2.68 m/s, 191° | 190 W/m² | - |
| 1778029895 | 18.89° C | 43% | 1010 hPa | 0 mm | 1.79 m/s, 180° | 208 W/m² | - |
| 1778029595 | 18.89° C | 42% | 1010 hPa | 0 mm | 2.24 m/s, 192° | 241 W/m² | - |
| 1778029291 | 18.89° C | 41% | 1009.8 hPa | 0 mm | 2.24 m/s, 156° | 253 W/m² | - |
| 1778028988 | 18.89° C | 42% | 1009.8 hPa | 0 mm | 3.13 m/s, 202° | 265 W/m² | - |
| 1778028684 | 18.89° C | 42% | 1010 hPa | 0 mm | 1.34 m/s, 196° | 281 W/m² | - |
| 1778028381 | 17.78° C | 43% | 1010.1 hPa | 0 mm | 1.79 m/s, 147° | 287 W/m² | - |
| 1778028078 | 18.89° C | 42% | 1010.2 hPa | 0 mm | 0 m/s | 296 W/m² | - |
| 1778027775 | 18.89° C | 42% | 1009.8 hPa | 0 mm | 2.24 m/s, 188° | 265 W/m² | - |
| 1778027471 | 18.89° C | 42% | 1010 hPa | 0 mm | 3.13 m/s, 170° | 324 W/m² | - |
| 1778027167 | 18.89° C | 42% | 1009.7 hPa | 0 mm | 3.13 m/s, 152° | 360 W/m² | - |
| 1778026863 | 18.33° C | 42% | 1010 hPa | 0 mm | 0 m/s | 346 W/m² | - |
| 1778026559 | 18.33° C | 41% | 1010.1 hPa | 0 mm | 1.79 m/s, 233° | 351 W/m² | - |
| 1778026256 | 18.89° C | 42% | 1009.8 hPa | 0 mm | 4.92 m/s, 218° | 374 W/m² | - |
| 1778025954 | 18.33° C | 44% | 1009.8 hPa | 0 mm | 0.89 m/s, 123° | 389 W/m² | - |
| 1778025651 | 18.33° C | 42% | 1010 hPa | 0 mm | 1.34 m/s, 210° | 372 W/m² | - |
| 1778025349 | 17.78° C | 44% | 1010.2 hPa | 0 mm | 0.89 m/s, 125° | 429 W/m² | - |
| 1778025046 | 17.78° C | 45% | 1010.2 hPa | 0 mm | 1.34 m/s, 177° | 387 W/m² | - |
| 1778024743 | 18.33° C | 45% | 1010 hPa | 0 mm | 2.24 m/s, 220° | 417 W/m² | - |
| 1778024439 | 17.22° C | 46% | 1010.2 hPa | 0 mm | 1.79 m/s, 208° | 256 W/m² | - |
* Rain latest hour (hover to see other rain measurements)
** Current wind speed in m/s (hover to see current wind gust speed)